Wetbulb
58.59 57.78 58.38 58.21 57.90 58.80 58.89 59.63 61.28 61.17 61.31 59.77 59.72 59.90 60.14 60.56 60.29 59.88 59.20 58.37 56.82 56.72
58.70 59.10 59.14 60.18 60.46 60.09 60.25 60.22 60.90 61.38 61.13 60.96 60.56 60.15 60.23 59.39 58.99 59.68 59.45 58.83 57.49 56.88
57.60 58.90 59.17 59.05 57.77 57.49 56.93 57.76 58.72 59.42 60.32 60.96 60.96 60.77 59.72 58.83 59.81 59.82 59.69 58.85 57.12 56.58
56.88 57.72 57.21 56.37 55.90 56.06 57.05 57.21 56.82 57.66 58.45 59.77 59.86 60.41 59.72 60.01 59.44 59.09 58.63 58.11 56.89 54.84
56.64 56.49 55.70 53.82 54.82 55.96 55.54 56.14 54.46 56.10 56.98 58.16 58.82 59.10 59.93 59.31 59.18 58.44 57.40 57.38 56.32 53.72
54.29 54.86 54.65 54.78 54.37 54.22 54.32 54.01 54.00 55.48 55.51 56.64 57.54 58.44 59.27 58.08 56.72 55.78 54.89 54.99 54.79 53.54
53.84 53.79 54.36 53.31 52.21 53.33 53.71 53.69 53.95 54.71 55.82 56.16 56.26 55.80 55.06 54.19 53.45 53.25 53.17 53.02 52.76 52.81
53.25 53.33 52.76 51.88 52.12 52.79 53.59 53.45 53.68 53.49 53.70 53.88 54.06 54.18 53.60 53.26 52.50 51.60 51.24 51.83 52.06 52.20
52.11 52.22 51.65 50.65 51.90 52.55 53.12 53.24 53.24 53.25 53.31 53.15 54.00 54.71 53.67 52.28 51.50 51.37 50.72 49.69 50.73 52.59
51.86 51.26 50.91 50.88 50.82 51.03 51.54 51.96 51.89 52.49 52.84 52.83 53.47 54.61 53.84 52.12 49.77 48.85 48.49 48.27 48.10 48.03
51.68 50.62 49.83 49.15 48.93 49.64 50.34 50.29 50.58 50.96 51.30 51.49 52.52 53.38 52.32 50.67 47.72 47.10 47.08 47.05 46.68 45.58
50.76 49.17 48.40 47.99 48.37 49.45 49.22 48.74 49.01 49.69 49.63 49.82 50.64 52.02 51.03 48.55 46.62 45.72 45.14 43.97 42.67 41.75
50.17 48.56 47.53 47.42 47.86 49.29 49.01 47.80 48.28 47.99 48.69 49.84 48.35 51.11 51.21 48.72 45.87 42.82 42.49 42.48 42.69 46.65
49.31 48.21 47.80 47.48 47.74 48.84 48.24 47.73 47.11 46.67 47.07 47.08 47.93 50.12 51.94 50.18 43.96 42.27 41.08 40.40 40.19 40.85
MSLP
1011.19 1011.47 1011.83 1012.23 1012.55 1012.82 1013.32 1013.48 1013.67 1013.84 1013.95 1014.12 1014.23 1014.67 1015.04 1015.66 1016.24 1016.83 1017.36 1017.68 1017.98 1018.35
1011.65 1011.71 1011.93 1012.23 1012.58 1012.90 1013.06 1013.25 1013.50 1013.78 1013.91 1014.15 1014.36 1014.67 1015.07 1015.56 1016.13 1016.65 1017.02 1017.48 1017.88 1018.15
1011.76 1011.70 1012.05 1012.41 1012.82 1013.06 1013.29 1013.58 1013.79 1013.93 1014.04 1014.23 1014.40 1014.60 1014.96 1015.51 1015.87 1016.29 1016.75 1017.13 1017.70 1018.14
1011.92 1012.11 1012.57 1012.97 1013.29 1013.48 1013.58 1013.81 1014.10 1014.14 1014.18 1014.29 1014.47 1014.65 1014.91 1015.38 1015.77 1016.23 1016.60 1016.99 1017.44 1017.95
1012.37 1012.73 1013.09 1013.55 1013.74 1013.89 1013.91 1014.00 1014.18 1014.26 1014.27 1014.30 1014.42 1014.65 1014.83 1015.38 1015.75 1016.13 1016.43 1016.78 1017.30 1017.42
1012.85 1013.11 1013.35 1013.72 1013.99 1014.10 1014.17 1014.34 1014.36 1014.33 1014.39 1014.42 1014.50 1014.61 1014.89 1015.46 1015.91 1016.36 1016.72 1017.03 1017.28 1017.65
1013.12 1013.33 1013.67 1013.97 1014.16 1014.38 1014.42 1014.50 1014.50 1014.45 1014.37 1014.46 1014.64 1015.00 1015.43 1015.97 1016.47 1016.95 1017.35 1017.67 1017.97 1018.27
1013.45 1013.64 1014.14 1014.23 1014.41 1014.67 1014.78 1014.83 1014.81 1014.66 1014.70 1014.81 1015.08 1015.44 1015.87 1016.50 1017.06 1017.60 1018.06 1018.24 1018.73 1018.95
1013.76 1014.11 1014.50 1014.60 1014.81 1015.00 1015.14 1015.11 1015.17 1015.16 1015.24 1015.52 1015.82 1016.07 1016.49 1016.98 1017.64 1018.00 1018.58 1018.85 1019.42 1019.59
1014.11 1014.46 1014.81 1014.94 1015.24 1015.51 1015.62 1015.68 1015.78 1015.81 1016.02 1016.31 1016.63 1016.94 1017.27 1017.63 1018.36 1018.91 1019.57 1020.00 1020.36 1020.63
1014.27 1014.73 1015.18 1015.46 1015.73 1016.05 1016.09 1016.30 1016.58 1016.69 1016.93 1017.21 1017.64 1017.83 1018.17 1018.67 1019.32 1019.93 1020.41 1020.77 1021.03 1021.19
1014.49 1015.07 1015.54 1015.95 1016.18 1016.47 1016.57 1016.97 1017.33 1017.61 1017.80 1018.10 1018.55 1018.68 1019.00 1019.31 1019.89 1020.59 1021.13 1021.64 1021.85 1022.02
1014.81 1015.41 1015.90 1016.29 1016.57 1016.90 1017.16 1017.58 1017.96 1018.39 1018.70 1019.03 1019.27 1019.62 1019.72 1019.97 1020.58 1021.31 1022.04 1022.51 1022.73 1022.72
1015.17 1015.74 1016.23 1016.56 1016.89 1017.28 1017.66 1018.11 1018.49 1019.06 1019.40 1019.67 1019.89 1020.14 1020.30 1020.61 1021.12 1021.83 1022.60 1023.24 1023.54 1023.58
Wind_Speed
7 4 4 5 2 4 3 4 5 3 3 4 6 5 6 5 5 5 5 8 6 5
4 4 4 4 3 2 2 3 4 5 5 4 4 6 8 5 6 7 7 6 7 6
5 5 5 4 5 3 4 5 2 2 3 4 4 3 6 4 4 6 6 5 7 5
6 8 8 7 5 4 4 2 2 3 2 3 3 3 3 5 6 7 6 7 9 7
5 5 6 6 4 3 3 3 2 3 2 2 4 2 4 6 5 6 5 5 8 10
6 5 5 5 5 5 5 4 3 2 3 1 1 3 5 6 5 4 4 4 4 6
6 5 5 5 6 5 4 4 4 3 2 3 5 6 8 9 8 8 6 6 6 6
4 6 5 5 7 5 4 4 4 6 8 7 7 6 10 9 9 10 10 10 8 7
6 5 6 5 7 5 5 6 6 8 8 9 7 19 19 13 10 11 10 11 10 11
7 7 6 6 8 6 7 9 9 10 10 10 11 21 22 21 10 12 10 10 10 10
8 9 8 7 8 6 9 9 8 10 11 11 11 22 23 22 13 11 11 11 9 8
9 9 8 8 9 7 10 10 10 10 11 11 11 22 23 18 12 10 10 10 9 8
10 10 9 8 9 8 9 10 10 11 11 16 13 17 16 13 9 11 9 10 8 15
10 10 9 8 6 9 10 11 11 11 10 10 8 6 13 15 8 8 8 7 5 4
Wind_Direction
70 72 83 97 97 102 191 191 188 207 220 162 161 153 146 147 154 161 180 185 170 156
109 126 105 134 133 174 168 136 174 194 196 180 211 161 164 168 174 172 177 177 173 173
179 134 124 129 100 90 63 31 333 198 222 197 213 210 165 159 153 158 177 168 163 152
62 65 54 53 45 37 55 88 248 327 11 195 201 245 165 151 167 179 167 159 171 164
83 104 106 77 66 60 60 49 351 310 278 231 154 199 196 149 168 166 159 170 174 162
121 99 101 87 63 51 54 42 334 278 260 258 175 128 119 119 115 97 100 103 136 148
89 102 95 100 75 48 54 40 33 36 183 131 118 103 100 99 99 93 86 84 90 101
106 93 84 73 74 62 56 61 58 73 74 76 80 97 103 101 98 96 85 87 78 93
106 93 90 79 78 67 73 70 73 73 77 79 86 99 98 95 92 91 85 77 70 72
124 113 97 88 76 65 73 73 65 74 77 82 96 102 99 92 87 85 82 84 85 86
125 112 99 90 85 80 84 76 74 76 80 82 92 101 99 94 89 89 89 92 90 90
117 114 107 100 95 92 92 86 81 82 87 91 94 101 103 103 98 91 81 76 69 63
119 117 114 111 106 104 97 96 93 90 89 97 99 103 104 96 97 90 84 71 62 78
118 119 119 113 105 114 111 107 102 98 93 85 81 113 110 105 102 106 99 90 74 67